Probability
0 0 0 0 0 0 0 0 0 0 0 0 0 0 0 0 0 0 0 1 2 2 1 0 1 1 0 0 0 0 1 2 3 3 3 3 3 3 3 3 3 3 3 2 1 0 1 2 2
0 0 0 0 0 0 0 0 0 0 0 0 0 0 0 0 0 0 0 1 2 3 1 1 2 2 1 0 0 0 1 2 3 3 3 3 3 4 4 3 3 3 3 2 1 0 0 1 1
0 0 0 0 0 0 0 1 1 1 0 0 0 0 0 0 0 0 1 1 3 3 3 3 3 3 1 0 0 0 0 1 2 3 3 3 3 4 4 4 3 3 3 2 1 0 0 0 0
0 0 0 0 0 0 0 1 1 1 0 0 0 0 0 0 0 1 2 3 3 3 3 3 3 3 2 1 1 1 0 0 1 1 2 2 3 4 4 3 3 3 2 2 1 0 0 0 0
0 0 0 0 0 0 0 0 0 0 0 0 0 0 0 0 0 2 3 3 3 3 3 3 3 2 3 3 3 2 1 1 1 1 0 1 2 3 3 2 2 1 1 1 0 0 0 0 0
0 0 0 0 0 0 0 0 0 0 0 0 0 1 1 1 1 3 4 2 3 4 4 3 3 3 3 3 3 3 2 2 2 1 0 0 1 2 2 2 1 0 0 0 0 1 1 1 0
0 0 0 0 0 0 0 0 0 0 0 0 0 1 2 1 2 3 3 3 4 5 5 4 3 3 3 2 3 3 2 1 1 0 0 0 0 1 1 1 0 0 0 0 0 1 2 2 1
0 0 0 0 0 0 0 0 0 0 0 0 0 1 2 3 4 4 4 4 5 6 4 3 3 3 3 3 3 3 2 1 1 1 1 0 0 0 0 0 0 0 0 0 0 1 2 3 4
0 0 0 0 0 0 0 0 0 0 0 0 0 1 2 5 6 7 6 5 6 6 4 3 2 2 4 4 2 1 2 2 2 2 2 1 0 0 0 0 0 0 0 0 0 1 3 5 5
0 0 0 0 0 0 0 0 0 0 0 0 1 2 3 6 8 8 7 6 6 6 5 4 3 3 3 3 2 1 2 3 3 3 3 2 1 0 0 0 0 0 0 0 0 1 3 4 4
0 0 0 0 0 0 0 0 0 0 0 0 1 4 6 8 9 9 8 7 6 6 6 5 4 4 3 2 3 3 3 3 3 3 3 3 1 0 1 1 1 0 1 1 1 1 2 3 3
0 0 0 0 0 0 0 0 0 0 0 0 3 6 8 9 10 9 8 7 6 6 6 6 4 4 3 3 3 4 4 4 3 3 3 3 2 2 2 2 2 1 2 2 2 2 1 1 2
0 0 0 0 0 0 0 0 1 1 1 3 6 7 8 9 9 9 8 8 7 7 6 5 4 3 3 3 3 3 4 3 3 3 3 3 3 3 3 3 2 1 2 3 3 2 1 0 1
0 0 0 0 0 0 0 1 2 2 3 7 9 8 8 8 7 7 9 10 9 7 6 5 2 1 3 3 3 3 3 3 3 3 3 3 3 4 3 3 2 1 1 2 1 1 0 0 0
0 0 0 0 0 0 0 1 2 4 6 10 11 11 9 8 8 8 9 10 9 7 6 5 2 1 2 3 3 3 3 4 3 3 3 3 4 5 4 4 3 1 1 1 1 1 1 1 1
0 0 0 0 0 0 0 0 1 4 9 13 14 13 11 10 9 8 8 8 7 7 6 5 2 1 2 3 4 4 4 4 4 3 3 3 4 5 5 5 3 2 2 2 2 2 2 3 3
0 0 0 0 0 0 0 0 1 6 11 14 14 13 11 11 9 8 7 7 7 7 6 5 4 3 3 4 5 6 5 5 4 3 3 3 3 4 4 5 4 4 4 5 4 3 3 3 4
0 0 0 0 0 0 0 0 1 6 11 12 11 10 10 10 9 7 7 7 8 8 6 4 4 3 3 4 6 6 6 5 4 3 3 3 3 4 4 5 5 6 6 6 5 4 3 3 3
0 0 0 0 0 0 0 0 1 4 8 10 9 8 8 8 7 7 6 6 8 8 5 3 3 2 3 4 5 6 6 6 4 4 4 5 5 6 6 6 6 6 6 6 5 4 3 3 3
0 0 0 0 1 1 0 1 2 3 5 8 9 8 7 6 5 5 5 5 7 8 7 5 4 3 4 5 6 6 7 6 5 5 6 6 6 7 7 6 5 4 4 4 4 3 2 2 3
0 0 0 0 1 1 0 1 2 3 4 7 8 7 7 6 4 4 6 7 7 8 8 7 7 7 8 9 10 9 9 8 7 6 6 5 5 6 5 4 4 3 3 3 3 3 3 3 3
0 0 0 0 0 0 0 0 1 2 4 5 7 7 6 5 5 6 8 9 7 5 7 10 11 12 13 14 14 13 12 10 8 6 4 3 3 4 4 3 3 3 3 3 2 2 3 3 3
0 0 0 0 0 0 0 0 0 1 2 4 6 6 4 4 6 7 9 10 7 5 7 12 15 15 15 15 16 15 13 11 8 5 3 2 2 3 3 3 3 3 3 3 2 2 3 3 3
0 0 0 0 0 0 0 0 0 0 1 2 4 5 4 5 6 8 9 9 7 6 8 12 16 16 15 16 15 14 12 8 5 4 3 1 2 3 3 3 3 3 3 3 3 3 3 3 3
0 0 0 0 0 0 0 0 0 0 0 2 3 4 5 6 7 7 8 7 7 6 8 13 16 16 16 15 13 11 7 4 3 2 1 1 2 3 4 3 3 3 3 3 3 3 3 3 3
0 0 0 0 0 0 0 0 0 1 1 1 2 4 5 6 5 5 5 6 6 7 9 12 15 16 15 13 8 5 2 1 2 2 1 1 2 4 5 4 3 3 4 4 4 4 3 3 3
0 0 0 0 0 0 0 0 0 1 2 1 2 4 5 4 3 3 3 4 5 6 8 11 14 14 12 8 5 2 0 1 2 3 3 2 3 5 5 5 4 4 5 5 5 5 4 3 3
0 0 0 0 0 0 0 0 0 1 2 1 1 2 3 3 2 2 3 3 4 5 7 9 10 11 8 5 4 2 1 1 3 3 3 3 4 4 4 5 5 6 6 7 6 5 4 3 3
0 0 0 0 0 0 0 0 0 1 1 1 0 1 2 1 1 2 3 3 4 6 7 7 8 7 6 4 3 3 2 2 3 4 3 3 3 4 4 4 4 5 6 6 6 5 5 4 3
0 0 0 0 0 0 0 0 0 0 1 0 0 0 1 0 1 2 3 3 5 7 9 7 6 6 5 5 4 3 4 3 4 4 4 3 3 3 3 3 4 5 5 5 5 5 5 4 3
Wind_Speed
3 3 2 2 5 6 2 2 1 1 2 2 3 4 5 3 2 2 1 6 8 7 5 6 7 7 7 7 7 7 7 7 7 7 7 7 7 7 6 6 6 6 6 6 7 7 7 6 6
2 2 2 4 6 3 3 2 1 0 2 3 4 4 5 3 2 4 3 5 8 7 5 5 7 7 7 7 7 7 7 7 7 7 7 7 6 6 6 6 6 5 5 5 6 6 6 6 6
2 1 3 5 4 3 2 1 1 1 1 2 3 4 3 2 3 4 4 8 7 6 4 5 8 7 7 7 6 6 6 6 7 6 6 6 6 5 5 5 5 5 5 5 5 6 6 6 5
2 3 5 5 1 3 3 2 2 2 2 3 4 4 3 2 3 4 8 9 8 5 4 4 8 7 7 6 6 6 6 6 6 6 5 5 5 5 4 5 5 4 4 4 4 5 5 5 5
4 4 5 3 2 3 2 2 2 2 1 2 3 4 2 3 5 9 9 9 8 5 3 4 7 7 6 6 6 5 5 5 5 5 5 4 4 4 4 4 4 4 4 4 4 4 4 4 5
5 5 5 1 3 3 2 1 2 2 2 3 4 4 1 2 6 8 8 7 6 5 4 3 6 7 6 6 5 5 5 4 5 4 4 4 3 3 3 3 3 3 4 3 3 4 4 4 5
4 4 3 1 2 3 1 1 2 2 2 3 5 4 1 2 4 7 7 6 5 4 4 2 2 4 5 5 5 4 4 4 4 4 3 3 3 2 2 2 2 2 3 3 3 3 4 4 4
4 5 2 1 1 2 1 1 2 3 2 3 5 6 5 5 6 7 7 5 4 4 3 2 1 1 1 2 4 4 4 3 3 3 2 2 2 1 1 1 1 2 2 2 2 3 3 3 4
4 5 1 3 3 2 1 1 1 1 3 2 2 4 5 12 10 8 6 4 4 4 3 2 2 1 1 1 3 3 3 2 2 1 1 1 1 1 1 2 2 2 2 2 2 2 2 2 3
4 3 5 4 4 2 1 1 2 2 2 1 3 4 10 12 11 9 8 7 7 6 5 3 2 2 1 2 1 1 1 0 1 1 1 1 1 1 2 3 3 3 3 2 2 2 2 2 2
3 4 4 3 3 2 1 1 2 5 3 5 7 10 12 11 10 9 8 8 7 6 5 4 3 2 2 1 1 1 1 0 0 1 1 1 1 1 1 1 2 3 3 2 3 3 2 2 1
2 4 3 3 1 1 2 1 1 4 6 5 9 13 13 13 12 11 10 8 6 5 5 5 4 3 2 1 1 1 1 0 0 1 0 0 0 1 1 1 1 1 1 2 2 1 2 1 1
1 3 3 3 2 2 2 2 2 4 3 5 9 11 12 12 10 8 7 6 6 6 6 5 5 4 3 2 1 1 1 1 1 0 1 0 0 0 1 1 1 1 1 1 1 1 1 1 1
2 2 3 3 2 1 1 1 1 4 4 8 9 10 11 11 10 7 6 6 6 6 6 5 5 4 4 3 2 1 1 1 1 1 1 1 1 0 0 1 1 1 1 1 1 1 1 1 1
1 2 5 3 1 1 3 3 3 3 5 7 7 8 8 8 7 7 8 7 7 6 6 5 5 4 4 3 3 2 1 1 1 1 1 1 1 1 0 0 1 1 1 1 1 1 1 1 1
3 3 2 5 2 0 4 4 6 2 6 6 6 7 6 6 6 6 6 5 5 5 5 5 5 4 4 3 3 1 1 1 1 1 1 1 1 1 1 0 1 1 1 1 1 1 1 1 1
4 1 2 5 2 1 2 4 5 1 6 5 5 5 5 4 4 4 5 6 6 6 5 5 3 4 4 3 2 1 1 1 0 0 0 0 1 1 1 1 0 0 1 1 1 1 1 1 1
2 1 2 3 3 2 1 4 5 1 5 5 5 4 4 4 5 3 4 5 5 4 4 4 3 2 3 2 1 1 1 0 1 0 0 0 0 0 1 1 0 1 1 1 1 1 1 1 1
3 2 3 5 2 0 2 4 5 1 2 3 4 4 5 5 2 2 2 3 4 3 3 3 3 3 3 2 2 1 1 0 1 1 1 0 0 0 1 1 1 1 1 1 1 1 1 1 1
3 1 3 5 2 1 2 3 3 1 3 5 6 5 5 3 1 2 2 2 3 4 4 4 4 3 3 3 2 2 1 1 0 1 1 1 1 1 1 1 1 1 1 1 1 1 1 1 1
3 4 4 3 4 3 1 5 4 3 1 0 2 3 3 5 4 3 3 3 3 4 5 5 4 4 3 3 3 2 2 2 2 1 1 1 1 1 1 1 1 1 1 1 0 1 2 1 1
4 6 5 3 1 2 2 2 6 4 3 2 2 3 4 4 4 4 4 4 3 4 3 4 4 4 3 3 3 4 3 2 1 0 0 1 1 1 1 1 1 1 1 0 0 1 1 1 0
6 2 2 2 3 0 2 2 7 3 3 5 4 4 5 5 5 5 5 5 4 3 3 3 4 3 3 3 3 3 2 1 1 1 1 1 1 1 1 1 1 1 1 0 0 0 1 1 1
4 5 5 5 5 0 2 3 6 3 5 5 4 4 4 4 4 4 3 3 2 2 3 3 4 3 3 4 3 3 3 2 2 1 0 1 1 1 1 1 0 0 0 1 1 1 1 1 1
4 6 4 4 3 4 2 3 7 6 5 5 5 4 3 3 3 3 3 3 3 3 3 3 4 3 2 3 2 2 2 2 2 1 1 0 0 1 1 0 0 0 0 0 0 1 1 1 1
4 8 8 5 4 4 1 4 7 4 3 3 2 3 3 3 4 4 4 4 3 4 4 4 4 3 3 3 2 1 2 1 1 1 1 1 1 1 1 0 0 0 0 0 0 0 0 1 1
6 3 6 7 2 1 4 5 7 2 3 2 1 1 2 3 4 4 4 4 4 4 4 4 5 4 3 3 3 2 2 2 2 1 1 1 1 0 0 0 1 1 1 1 1 1 0 0 0
5 8 6 6 5 3 4 4 5 4 4 3 1 2 3 3 3 3 3 3 3 3 3 3 4 4 3 3 3 3 3 3 2 1 1 1 1 0 0 0 0 1 1 1 1 1 1 2 1
3 4 5 4 5 6 3 7 6 6 5 5 4 4 4 4 3 3 2 2 3 3 3 3 3 3 2 3 3 3 2 2 2 2 2 2 1 1 0 0 1 1 1 1 1 1 1 1 1
5 6 7 5 4 4 4 8 3 3 4 4 5 4 2 3 2 2 3 3 3 3 2 3 3 3 2 2 2 2 2 2 1 1 1 1 1 1 1 1 1 1 1 1 1 1 1 1 1
Wind_Direction
133 123 123 87 55 48 15 308 296 351 25 37 90 97 110 109 139 161 136 136 135 140 154 161 154 145 135 126 118 115 113 109 106 104 104 103 100 98 98 95 90 84 79 77 75 74 80 83 85
132 137 85 62 73 54 314 296 337 293 152 123 79 77 79 73 76 110 128 147 140 143 151 159 155 147 137 129 122 117 116 114 110 106 105 106 104 100 99 100 98 91 81 78 77 75 75 76 78
156 141 81 70 86 157 240 263 178 62 108 105 81 64 84 105 131 149 159 142 133 140 147 164 155 149 141 133 128 124 120 119 117 112 107 104 104 102 96 98 97 91 84 79 76 76 73 71 71
106 51 53 67 73 223 218 232 160 118 47 56 98 77 66 61 146 146 135 138 135 140 147 167 156 153 146 139 133 130 125 122 122 118 109 102 99 97 93 94 94 91 88 82 76 77 74 68 69
63 73 57 38 316 281 243 222 165 125 100 80 99 96 54 19 103 123 133 141 143 146 153 167 156 154 149 145 141 138 133 124 119 115 109 103 98 95 95 91 86 86 89 83 78 73 69 64 63
57 64 76 14 306 304 283 192 127 104 105 105 107 107 77 96 126 136 136 137 140 145 150 159 162 157 153 147 145 140 130 123 118 112 106 102 99 96 95 86 75 77 72 71 77 67 55 52 52
99 91 126 185 293 310 271 89 106 122 130 153 135 116 130 150 148 135 127 123 127 138 142 153 164 164 162 153 147 141 132 127 120 113 110 104 94 93 93 84 66 61 60 61 69 67 51 48 52
121 100 94 219 222 267 296 25 74 117 141 131 129 146 186 178 138 118 111 113 124 135 148 155 147 132 146 161 163 153 143 139 127 120 116 110 99 89 81 60 39 36 45 54 59 54 48 47 51
91 79 169 215 202 251 310 62 16 68 110 113 142 168 163 138 133 123 121 126 144 162 168 163 151 143 143 159 175 164 162 160 144 139 135 90 31 17 18 6 15 23 37 50 49 32 40 48 51
90 132 220 217 197 209 275 185 170 107 110 102 78 91 125 137 146 150 156 164 174 183 183 175 172 168 165 183 146 112 123 79 55 19 21 40 37 10 14 360 356 358 5 13 18 8 17 42 39
142 192 233 251 209 185 207 229 160 141 207 204 176 155 149 152 160 169 175 177 182 181 179 181 183 178 177 190 132 109 86 64 15 359 11 21 27 13 10 9 353 350 356 4 6 8 17 38 38
177 244 233 253 192 166 185 189 166 194 219 201 168 156 159 166 176 181 182 183 175 171 187 182 179 178 185 175 157 146 138 144 266 295 340 45 22 1 346 356 339 352 353 357 7 12 14 29 36
221 273 281 269 299 216 175 203 209 241 214 135 138 152 167 175 184 188 182 174 168 178 190 188 181 184 183 175 190 178 189 207 235 267 254 189 187 286 328 341 339 334 343 348 351 14 15 1 5
251 278 301 304 305 279 150 273 168 255 146 131 147 166 176 180 182 178 176 178 181 185 191 187 186 187 180 182 188 187 194 204 214 239 247 212 185 209 350 347 344 340 333 339 1 1 3 345 355
335 354 346 338 357 289 93 331 251 243 140 141 160 171 179 184 177 180 187 187 185 186 189 189 189 178 182 189 189 184 193 185 209 243 243 206 175 176 175 328 332 323 337 33 44 29 31 13 6
34 38 344 310 341 351 113 263 278 191 147 162 172 175 179 188 185 185 181 180 177 172 179 191 191 179 186 189 177 166 161 166 208 235 237 199 185 173 161 187 297 324 47 68 70 46 42 10 1
32 47 288 308 331 61 121 249 280 163 156 176 181 183 187 190 199 194 182 176 174 173 174 180 187 179 179 176 152 135 112 136 174 148 166 217 199 179 165 178 278 33 72 61 44 62 83 23 351
205 199 272 272 301 30 232 257 291 209 173 187 184 179 185 195 212 201 185 173 167 166 167 174 176 171 158 143 112 76 52 35 44 34 302 144 165 169 157 146 97 81 85 65 42 55 59 58 20
157 172 264 267 265 309 254 271 288 272 174 187 186 180 192 204 189 149 159 159 144 145 157 171 171 170 152 142 147 162 218 306 357 340 13 57 60 105 133 134 108 91 107 129 101 92 69 44 44
158 206 276 297 325 187 275 295 295 262 200 193 191 192 197 195 142 129 119 127 153 168 171 170 178 179 175 164 155 149 138 164 171 9 27 33 50 76 121 113 117 121 116 78 79 103 108 40 44
206 200 225 251 340 20 39 338 331 321 359 36 191 187 184 184 185 178 154 159 166 174 177 175 181 175 166 143 122 102 77 47 39 31 24 18 50 77 73 103 131 131 131 150 175 137 132 116 18
237 223 203 210 95 307 57 293 299 306 325 298 240 203 203 200 186 178 170 176 184 193 169 152 157 151 143 139 140 136 145 156 197 186 71 23 51 63 63 70 97 112 120 143 220 148 145 135 150
211 178 159 171 154 27 17 151 284 314 292 276 253 224 215 210 190 182 182 182 177 165 139 128 127 128 124 122 136 143 145 156 121 90 66 23 14 27 44 72 87 105 121 166 239 131 136 151 166
151 74 57 50 76 314 247 173 273 255 239 258 247 222 210 202 187 178 163 147 145 127 120 117 117 112 117 131 141 145 137 123 104 77 63 358 357 357 4 42 72 129 143 214 232 198 165 176 179
103 93 41 8 18 251 247 182 246 254 250 240 234 224 204 182 170 157 143 147 156 144 135 126 126 123 124 122 124 137 135 133 156 171 185 127 347 329 317 336 300 252 245 251 231 172 176 178 183
165 140 154 184 214 267 302 228 251 264 280 274 235 199 187 175 168 164 167 163 165 158 149 143 144 149 133 118 113 111 133 151 198 187 180 189 219 267 297 322 351 359 15 34 100 127 197 173 191
136 160 161 133 149 227 274 282 298 292 323 326 287 175 197 190 176 174 167 157 155 159 165 162 157 155 145 149 159 157 166 188 206 203 185 196 229 254 308 360 328 346 26 34 66 65 28 73 115
134 142 107 123 148 223 276 265 255 268 261 265 250 215 220 195 176 160 155 161 166 161 149 140 149 156 157 170 183 180 190 194 195 194 189 186 205 257 302 272 332 29 44 49 65 55 42 58 36
107 102 110 121 151 160 227 262 234 227 224 222 225 218 208 194 175 164 163 159 144 130 131 139 144 149 158 173 181 175 180 186 185 191 199 193 182 181 170 142 94 68 48 49 70 63 56 51 29
146 152 140 150 205 178 180 258 279 243 229 212 217 217 201 178 150 144 140 121 121 133 135 139 156 160 165 163 167 169 170 173 178 196 204 184 187 196 186 163 118 89 64 56 59 46 57 68 36